Caro, MI

9:20 PM EST on January 16, 2018 (GMT -0500)
Caro

Weather History for KCFS - October, 2012

Change the Weather History Date:

Friday, October 26, 2012

  Actual Average (KMBS) Record (KMBS)
Temperature  
Mean Temperature 54 °F -  
Max Temperature 69 °F 53 °F 72 °F (2000)
Min Temperature 40 °F 36 °F 27 °F (2006)
Degree Days  
Heating Degree Days 10    
Growing Degree Days 4 (Base 50)    
Moisture  
Dew Point 41 °F    
Average Humidity 75    
Maximum Humidity 96    
Minimum Humidity 53    
Precipitation  
Precipitation 0.00 in - - ()
Sea Level Pressure  
Sea Level Pressure 30.11 in    
Wind  
Wind Speed 11 mph (WNW)    
Max Wind Speed 24 mph    
Max Gust Speed 32 mph    
Visibility 10 miles    
Events Rain    
Averages and records for this station are not official NWS values.
T = Trace of Precipitation, MM = Missing Value Source: NWS Daily Summary

Daily Weather History Graph

Daily Weather History Graph

Search for Another Location

Airport or City:

Trip Planner

Search our weather history database for the weather conditions in past years. The results will help you decide how hot, cold, wet, or windy it might be!

Date:

Astronomy

Oct. 26, 2012 Rise Set
Actual Time 8:02 AM EDT 6:32 PM EDT
Civil Twilight 7:32 AM EDT 7:02 PM EDT
Nautical Twilight 6:59 AM EDT 7:35 PM EDT
Astronomical Twilight 6:26 AM EDT 8:08 PM EDT
Moon 4:51 PM EDT (10/26) 4:52 AM EDT (10/26)
Length of Visible Light 11h 29m
Length of Day
10h 30m
Waxing Gibbous, 91% of the Moon is Illuminated
Oct 26
Waxing Gibbous
Oct 29
Full
Nov 6
Last Quarter
Nov 13
New
Nov 20
First Quarter

Hourly Weather History & Observations

Time (EDT) Temp. Windchill Dew Point Humidity Pressure Visibility Wind Dir Wind Speed Gust Speed Precip Events Conditions
12:14 AM 69.8 °F - 52.2 °F 53% 29.78 in 10.0 mi South 13.8 mph 24.2 mph N/A   Clear
12:35 AM 69.8 °F - 52.2 °F 53% 29.78 in 10.0 mi South 16.1 mph 24.2 mph N/A   Clear
12:54 AM 69.8 °F - 52.5 °F 54% 29.78 in 10.0 mi South 15.0 mph 20.7 mph N/A   Mostly Cloudy
1:14 AM 69.1 °F - 52.7 °F 56% 29.79 in 10.0 mi SSW 12.7 mph 23.0 mph N/A   Scattered Clouds
1:35 AM 68.5 °F - 52.9 °F 57% 29.79 in 10.0 mi SSW 11.5 mph 21.9 mph N/A   Scattered Clouds
2:15 AM 64.0 °F - 56.3 °F 76% 29.84 in 10.0 mi West 23.0 mph 32.2 mph N/A   Scattered Clouds
2:34 AM 61.2 °F - 54.3 °F 78% 29.87 in 10.0 mi West 24.2 mph 31.1 mph N/A   Mostly Cloudy
2:54 AM 57.6 °F - 51.4 °F 80% 29.88 in 10.0 mi West 21.9 mph 26.5 mph N/A   Overcast
3:15 AM 56.3 °F - 50.2 °F 80% 29.91 in 10.0 mi West 15.0 mph 19.6 mph N/A   Overcast
3:34 AM 54.5 °F - 50.4 °F 86% 29.92 in 10.0 mi West 15.0 mph 24.2 mph N/A   Overcast
3:54 AM 51.8 °F - 49.3 °F 91% 29.93 in 4.0 mi West 19.6 mph - N/A Rain Light Rain
4:15 AM 51.3 °F - 49.1 °F 92% 29.95 in 4.0 mi West 12.7 mph 21.9 mph N/A   Drizzle
4:34 AM 50.0 °F - 48.4 °F 94% 29.98 in 4.0 mi West 16.1 mph 20.7 mph N/A   Drizzle
4:55 AM 49.6 °F - 48.6 °F 96% 30.00 in 4.0 mi West 15.0 mph 20.7 mph N/A Rain Rain
5:15 AM 48.7 °F - 47.7 °F 96% 30.00 in 5.0 mi West 15.0 mph 21.9 mph N/A Rain Light Rain
5:34 AM 48.6 °F - 47.5 °F 96% 29.99 in 10.0 mi WNW 9.2 mph 20.7 mph N/A Rain Light Rain
5:55 AM 47.7 °F - 46.4 °F 95% 30.01 in 7.0 mi WNW 12.7 mph 19.6 mph N/A   Drizzle
6:15 AM 47.5 °F - 45.5 °F 93% 30.02 in 10.0 mi WNW 11.5 mph 20.7 mph N/A   Overcast
6:34 AM 47.3 °F - 45.0 °F 92% 30.04 in 10.0 mi WNW 12.7 mph 18.4 mph N/A Rain Light Rain
6:55 AM 46.9 °F - 44.4 °F 91% 30.06 in 10.0 mi NW 10.4 mph - N/A Rain Light Rain
7:14 AM 46.4 °F 42.9 °F 43.7 °F 90% 30.08 in 10.0 mi WNW 6.9 mph - N/A   Overcast
7:34 AM 46.4 °F 41.1 °F 42.8 °F 87% 30.09 in 10.0 mi NW 11.5 mph 17.3 mph N/A Rain Light Rain
7:55 AM 46.4 °F 41.5 °F 42.8 °F 87% 30.09 in 10.0 mi NW 10.4 mph - N/A   Overcast
8:14 AM 46.2 °F 43.3 °F 42.4 °F 87% 30.10 in 10.0 mi WNW 5.8 mph - N/A   Overcast
8:55 AM 46.0 °F 41.4 °F 41.7 °F 85% 30.12 in 10.0 mi NW 9.2 mph - N/A   Scattered Clouds
9:35 AM 46.0 °F 41.0 °F 41.0 °F 83% 30.16 in 10.0 mi WNW 10.4 mph - N/A   Overcast
9:55 AM 46.0 °F 40.6 °F 39.4 °F 78% 30.16 in 10.0 mi NW 11.5 mph - N/A   Overcast
10:14 AM 45.9 °F 40.0 °F 39.4 °F 78% 30.16 in 10.0 mi NW 12.7 mph 17.3 mph N/A   Overcast
10:35 AM 46.2 °F 42.2 °F 38.5 °F 74% 30.18 in 10.0 mi WNW 8.1 mph - N/A   Overcast
10:55 AM 46.4 °F 42.4 °F 38.3 °F 73% 30.18 in 10.0 mi NW 8.1 mph - N/A   Overcast
11:14 AM 46.2 °F 42.2 °F 38.1 °F 73% 30.18 in 10.0 mi NNW 8.1 mph - N/A   Overcast
11:35 AM 45.7 °F 40.2 °F 38.8 °F 77% 30.19 in 10.0 mi WNW 11.5 mph - N/A   Overcast
11:54 AM 45.7 °F 40.6 °F 37.6 °F 73% 30.20 in 10.0 mi WNW 10.4 mph - N/A   Overcast
12:14 PM 46.4 °F 41.9 °F 37.2 °F 70% 30.21 in 10.0 mi WNW 9.2 mph - N/A   Overcast
12:35 PM 47.7 °F - 38.3 °F 70% 30.21 in 10.0 mi West 12.7 mph - N/A   Overcast
12:54 PM 47.7 °F - 37.0 °F 67% 30.21 in 10.0 mi WNW 11.5 mph - N/A   Overcast
1:14 PM 48.4 °F - 37.4 °F 66% 30.21 in 10.0 mi WNW 11.5 mph 16.1 mph N/A   Overcast
1:35 PM 49.8 °F - 36.3 °F 60% 30.20 in 10.0 mi NNW 10.4 mph - N/A   Overcast
1:54 PM 48.6 °F - 36.0 °F 62% 30.21 in 10.0 mi WNW 10.4 mph - N/A   Mostly Cloudy
2:14 PM 50.0 °F - 36.0 °F 59% 30.20 in 10.0 mi NW 8.1 mph 16.1 mph N/A   Mostly Cloudy
2:35 PM 48.2 °F - 36.3 °F 63% 30.21 in 10.0 mi WNW 8.1 mph - N/A   Scattered Clouds
2:54 PM 49.6 °F - 36.3 °F 60% 30.21 in 10.0 mi NNW 8.1 mph - N/A   Mostly Cloudy
3:15 PM 49.8 °F - 36.0 °F 59% 30.21 in 10.0 mi NW 10.4 mph - N/A   Scattered Clouds
3:35 PM 49.5 °F - 35.8 °F 59% 30.21 in 10.0 mi NW 10.4 mph - N/A   Scattered Clouds
3:54 PM 49.1 °F - 33.1 °F 54% 30.20 in 10.0 mi NW 8.1 mph - N/A   Clear
4:15 PM 48.4 °F - 33.3 °F 56% 30.21 in 10.0 mi NNW 8.1 mph - N/A   Clear
4:35 PM 48.2 °F - 33.8 °F 58% 30.21 in 10.0 mi NNW 6.9 mph - N/A   Clear
4:54 PM 47.7 °F - 34.0 °F 59% 30.22 in 10.0 mi NNW 6.9 mph - N/A   Clear
5:15 PM 47.5 °F - 33.3 °F 58% 30.22 in 10.0 mi NNW 6.9 mph - N/A   Clear
5:34 PM 47.7 °F - 33.8 °F 59% 30.21 in 10.0 mi NNW 6.9 mph - N/A   Clear
5:54 PM 46.9 °F - 33.4 °F 59% 30.22 in 10.0 mi NW 3.5 mph - N/A   Clear
6:15 PM 46.4 °F 44.3 °F 34.2 °F 62% 30.22 in 10.0 mi NW 4.6 mph - N/A   Clear
6:34 PM 45.5 °F 44.2 °F 35.1 °F 67% 30.22 in 10.0 mi NW 3.5 mph - N/A   Clear
6:54 PM 44.1 °F 42.5 °F 36.1 °F 74% 30.21 in 10.0 mi NNW 3.5 mph - N/A   Clear
7:15 PM 42.1 °F - 37.0 °F 82% 30.22 in 10.0 mi Calm Calm - N/A   Clear
7:34 PM 40.5 °F - 35.6 °F 83% 30.22 in 10.0 mi Calm Calm - N/A   Clear
7:55 PM 40.5 °F - 37.8 °F 90% 30.21 in 10.0 mi Calm Calm - N/A   Clear
8:15 PM 40.5 °F - 36.9 °F 87% 30.22 in 10.0 mi Calm Calm - N/A   Clear
8:34 PM 41.0 °F - 37.0 °F 86% 30.22 in 10.0 mi Calm Calm - N/A   Clear
8:55 PM 43.3 °F 41.7 °F 37.9 °F 81% 30.22 in 10.0 mi NNW 3.5 mph - N/A   Clear
9:15 PM 43.3 °F - 36.7 °F 77% 30.23 in 10.0 mi Calm Calm - N/A   Clear
9:34 PM 42.8 °F - 36.3 °F 78% 30.24 in 10.0 mi Calm Calm - N/A   Clear
10:15 PM 40.5 °F - 37.8 °F 90% 30.24 in 10.0 mi Calm Calm - N/A   Clear
10:34 PM 40.3 °F - 37.2 °F 89% 30.23 in 10.0 mi Calm Calm - N/A   Clear
10:55 PM 42.4 °F - 35.6 °F 77% 30.24 in 10.0 mi Calm Calm - N/A   Clear
11:14 PM 41.9 °F - 36.9 °F 82% 30.23 in 10.0 mi Calm Calm - N/A   Clear
11:34 PM 41.9 °F - 37.4 °F 84% 30.23 in 10.0 mi Calm Calm - N/A   Clear
11:55 PM 42.1 °F 37.7 °F 38.3 °F 86% 30.23 in 10.0 mi NNW 6.9 mph - N/A   Clear